Location: Manas
(43.3709°N, 0.3616°E)
Time: 20:51:07
(UTC+00:00)

Cosmos-2242 - Visible Passes

Search period start: 15 May 2026 00:00
Search period end: 25 May 2026 00:00
Orbit: 564 x 589 km, 82.5° (Epoch: 15 May)

Date Brightness Start Highest point End Pass type
(mag) Time Alt. Az. Time Alt. Az. Time Alt. Az.
15 May 4.1 21:37:47 27° ENE 21:37:47 27° ENE 21:40:51 10° NNE visible
15 May 4.7 23:14:02 23° W 23:14:17 23° WNW 23:17:38 10° NNW visible
16 May 3.6 21:41:30 36° E 21:41:30 36° E 21:45:07 10° NNE visible
16 May 5.1 23:17:45 17° W 23:18:27 18° WNW 23:21:17 10° NNW visible
17 May 3.1 21:45:11 50° E 21:45:19 50° E 21:49:19 10° NNE visible
17 May 5.4 23:21:25 12° W 23:22:37 14° WNW 23:24:43 10° NW visible
18 May 2.8 21:48:50 62° SE 21:49:19 70° E 21:53:26 10° NNE visible
18 May 5.7 23:26:26 10° WNW 23:26:50 10° WNW 23:27:13 10° WNW visible
19 May 2.8 21:52:27 53° SSW 21:53:22 85° W 21:57:30 10° N visible
20 May 5.0 20:20:10 10° E 20:21:02 11° E 20:21:55 10° ENE visible
20 May 3.2 21:56:03 38° SW 21:57:26 61° W 22:01:31 10° N visible
21 May 4.8 20:23:21 12° ESE 20:24:56 14° E 20:27:11 10° NE visible
21 May 3.8 21:59:36 26° SW 22:01:30 44° WNW 22:05:27 10° N visible
22 May 4.4 20:26:52 14° ESE 20:28:52 19° E 20:31:48 10° NE visible
22 May 4.4 22:03:06 18° SW 22:05:36 33° WNW 22:09:20 10° N visible
23 May 4.1 20:30:19 15° SE 20:32:49 25° E 20:36:12 10° NNE visible
23 May 4.9 22:06:33 11° SW 22:09:43 25° WNW 22:13:08 10° NNW visible
24 May 3.6 20:33:44 14° SSE 20:36:46 34° E 20:40:30 10° NNE visible
24 May 5.3 22:10:54 10° WSW 22:13:51 19° WNW 22:16:49 10° NNW visible
